Regional Weather Roundup
Issued by NWS

Home | Current Version | Previous Version | Graphics & Text | Print | Product List | Glossary On
Versions: 1 2 3 4 5 6 7 8 9 10 11 12 13 14 15 16 17 18 19 20 21 22 23 24 25 26 27 28 29 30 31 32 33 34 35 36 37 38 39 40 41 42 43 44 45 46 47 48 49 50
000
ASUS43 KDTX 230801
RWRMI
MICHIGAN HOURLY REGIONAL WEATHER ROUNDUP
NATIONAL WEATHER SERVICE DETROIT/PONTIAC MI
300 AM EST FRI FEB 23 2018

NOTE: "FAIR" INDICATES FEW OR NO CLOUDS BELOW 12,000 FEET WITH NO
SIGNIFICANT WEATHER AND/OR OBSTRUCTION TO VISIBILITY.

MIZ047>049-052>055-059>063-066>070-074>076-081>083-230900-
SOUTHEAST LOWER MICHIGAN

CITY           SKY/WX    TMP DP  RH WIND       PRES   REMARKS
ADRIAN         CLOUDY    33  31  92 E10       30.37F FOG     WCI  25
ALMA           CLOUDY    32  29  90 E5        30.36F WCI  27
ANN ARBOR      CLOUDY    34  31  88 E12       30.34F WCI  25
BAD AXE        CLOUDY    31  28  88 SE8       30.37F WCI  24
CARO           CLOUDY    32  30  91 SE6       30.36F WCI  26
DETROIT CITY   CLOUDY    34  30  85 E7        30.39F WCI  28
DETROIT        CLOUDY    35  32  88 E9        30.38F WCI  28
FLINT          CLOUDY    33  30  88 SE8       30.35F WCI  26
GROSSE ILE     CLOUDY    34  32  92 E9        30.36F WCI  27
HILLSDALE      CLOUDY    32  32 100 E10       30.30F FOG     WCI  24
HOWELL         CLOUDY    33  32  98 SE9       30.33F FOG     WCI  25

CITY           SKY/WX    TMP DP  RH WIND       PRES   REMARKS
JACKSON        CLOUDY    34  32  92 E10G20    30.32F FOG     WCI  26
LAMBERTVILLE   CLOUDY    33  32  94 NE5       30.37R WCI  29
LANSING        CLOUDY    33  31  92 SE10      30.34F WCI  25
LAPEER         CLOUDY    32  31  96 SE6       30.36F WCI  27
MASON          CLOUDY    34  30  86 SE7       30.34F FOG     WCI  28
MT. CLEMENS    CLOUDY    33  33 100 E9        30.36F WCI  26
PONTIAC        CLOUDY    32  31  96 SE12      30.34F FOG     WCI  23
PORT HOPE        N/A     32  28  85 SE15G23   30.37F WCI  22
PORT HURON     CLOUDY    34  30  86 E10       30.38F WCI  26
TRI CITIES     CLOUDY    32  28  85 E9        30.36F WCI  24
MIDLAND        CLOUDY    32  28  85 E3        30.37F
TROY           CLOUDY    34  32  93 E8        30.38F WCI  27
SAGINAW HB     CLOUDY    32  30  93 E5        30.36F WCI  27
$$
MIZ043>046-050>051-056>058-064>065-071>073-077>080-230900-
SOUTHWEST LOWER MICHIGAN

CITY           SKY/WX    TMP DP  RH WIND       PRES   REMARKS
BATTLE CREEK   CLOUDY    35  33  92 E9        30.29F FOG     WCI  28
BENTON HARBOR  CLOUDY    37  33  85 SE12      30.25F WCI  29
BIG RAPIDS     CLOUDY    31  24  78 SE8       30.33F WCI  23
COLDWATER      CLOUDY    34  34 100 E12G17    30.29F FOG     WCI  26
FREMONT        CLOUDY    32  25  75 E10G16    30.30F HAZE    WCI  23
HOLLAND        CLOUDY    37  32  82 E12       30.27F WCI  29
GRAND RAPIDS   CLOUDY    34  28  79 E9        30.31F WCI  27
IONIA          CLOUDY    32  29  87 E7        30.32F WCI  26
KALAMAZOO      CLOUDY    36  33  89 SE12      30.28F WCI  28
LUDINGTON      CLOUDY    33  27  79 SE13G22   30.27F WCI  24
MARSHALL       CLOUDY    33  33  98 E10       30.29F FOG     WCI  25
MOUNT PLEASANT CLOUDY    32  26  78 CALM      30.35F
MUSKEGON       CLOUDY    34  26  72 E16       30.28F WCI  24
SOUTH HAVEN    CLOUDY    37  34  86 SE9       30.26F WCI  31
$$
MIZ016>042-230900-
NORTHERN LOWER MICHIGAN

CITY           SKY/WX    TMP DP  RH WIND       PRES   REMARKS
ALPENA         CLOUDY    32  29  88 SE10      30.39F WCI  24
BEAVER ISLAND  CLOUDY    28  22  77 E8        30.32F WCI  20
BELLAIRE       CLOUDY    32  22  67 SE7       30.33F WCI  26
CADILLAC       CLOUDY    28  23  81 SE14G21   30.29F WCI  17
CHARLEVOIX     CLOUDY    31  17  57 SE7       30.34F WCI  24
FRANKFORT      CLOUDY    36  17  45 SE7       30.27F WCI  30
GAYLORD        CLOUDY    27  20  75 SE13      30.31F WCI  16
GRAYLING       CLOUDY    29  23  78 SE13      30.32F WCI  18
HARBOR SPRINGS CLOUDY    28  19  66 E9        30.33F WCI  20
HOUGHTON LAKE  CLOUDY    29  23  78 SE8       30.34F WCI  21
MANISTEE       MIX PCPN  33  24  69 SE12      30.28F WCI  24
OSCODA         FAIR      32  27  83 E8        30.39F WCI  25
PELLSTON       CLOUDY    28  20  71 E8        30.34F WCI  20
ROGERS CITY    CLOUDY    29  24  79 SE8       30.39F WCI  21
TRAVERSE CITY  CLOUDY    34  20  56 VRB7      30.30F WCI  28
$$
MIZ007>008-015-230900-
EASTERN UPPER MICHIGAN

CITY           SKY/WX    TMP DP  RH WIND       PRES   REMARKS
KINROSS        CLOUDY    24  18  77 E13       30.36F WCI  12
MACKINAC ISLAN CLOUDY    29  24  81 E15G22    30.33F WCI  17
NEWBERRY       CLOUDY    26  19  73 E8        30.31F WCI  18
S. S. MARIE    CLOUDY    25  13  60 E6        30.39F WCI  18
MUNISING         N/A     26  21  81 VRB5      30.29F WCI  20
$$
MIZ004>006-011>014-085-230900-
CENTRAL UPPER MICHIGAN

CITY           SKY/WX    TMP DP  RH WIND       PRES   REMARKS
MANISTIQUE     CLOUDY    27  21  80 E14G22    30.30F WCI  15
ESCANABA       FLURRIES  30  25  81 E10       30.29F WCI  21
MENOMINEE      MIX PCPN  31  29  92 E6        30.26F WCI  25
$$
MIZ001>003-009>011-084-230900-
WESTERN UPPER MICHIGAN

CITY           SKY/WX    TMP DP  RH WIND       PRES   REMARKS
IRON MOUNTAIN  LGT SNOW  26  23  88 SE9       30.18F FOG     WCI  17
HOUGHTON       LGT SNOW  26  22  84 E7        30.23F FOG     WCI  18
COPPER HARBOR    N/A     27  24  89 SE3       30.28F
IRONWOOD       SNOW      25  23  92 E3        30.18F VSB 1/2
$$

ABBREVIATIONS USED IN REMARKS
   TC - TEMPERATURE IN CELSIUS
  WCI - WIND CHILL INDEX
   HX - HEAT INDEX
  VSB - VISIBILITY




USA.gov is the U.S. government's official web portal to all federal, state and local government web resources and services.